| time (UTC) | temp F | wind direction | speed knots | gust knots | rain 1hr in | rain 24hr in | rain mn in | humidity % | barometer mb |
| 20260502220029 | 63 | 71 | 5.2 | 10.4 | 0.00 | 0.00 | 0.00 | 26 | 1018.0 |
| 20260502214526 | 63 | 37 | 5.2 | 8.7 | 0.00 | 0.00 | 0.00 | 29 | 1017.9 |
| 20260502213028 | 61 | 335 | 2.6 | 6.1 | 0.00 | 0.00 | 0.00 | 29 | 1018.2 |
| 20260502211528 | 62 | 332 | 2.6 | 6.1 | 0.00 | 0.00 | 0.00 | 30 | 1018.3 |
| 20260502210019 | 61 | 297 | 4.3 | 7.8 | 0.00 | 0.00 | 0.00 | 28 | 1018.4 |
| 20260502204523 | 62 | 4 | 6.1 | 8.7 | 0.00 | 0.00 | 0.00 | 31 | 1018.5 |
| 20260502203027 | 62 | 117 | 4.3 | 9.6 | 0.00 | 0.00 | 0.00 | 27 | 1018.8 |
| 20260502201530 | 63 | 356 | 3.5 | 11.3 | 0.00 | 0.00 | 0.00 | 29 | 1018.8 |
| 20260502200008 | 63 | 45 | 4.3 | 9.6 | 0.00 | 0.00 | 0.00 | 29 | 1018.8 |
| 20260502194503 | 63 | 19 | 4.3 | 11.3 | 0.00 | 0.00 | 0.00 | 28 | 1019.1 |
| 20260502193008 | 64 | 56 | 5.2 | 8.7 | 0.00 | 0.00 | 0.00 | 27 | 1019.4 |
| 20260502191512 | 62 | 62 | 1.7 | 7.0 | 0.00 | 0.00 | 0.00 | 29 | 1019.6 |
| 20260502190011 | 62 | 23 | 7.0 | 10.4 | 0.00 | 0.00 | 0.00 | 28 | 1019.6 |
| 20260502184512 | 62 | 8 | 7.8 | 10.4 | 0.00 | 0.00 | 0.00 | 27 | 1020.0 |
| 20260502183005 | 60 | 360 | 4.3 | 7.8 | 0.00 | 0.00 | 0.00 | 29 | 1019.9 |
| 20260502181508 | 60 | 1 | 2.6 | 8.7 | 0.00 | 0.00 | 0.00 | 28 | 1020.1 |
| 20260502163014 | 57 | 359 | 5.2 | 7.8 | 0.00 | 0.00 | 0.00 | 28 | 1020.6 |
| 20260502161507 | 56 | 360 | 4.3 | 7.8 | 0.00 | 0.00 | 0.00 | 28 | 1020.5 |
| 20260502151516 | 53 | 349 | 0.9 | 5.2 | 0.00 | 0.00 | 0.00 | 33 | 1020.5 |
| 20260502123014 | 46 | 243 | 7.8 | 10.4 | 0.00 | 0.00 | 0.00 | 37 | 1019.3 |
| 20260502121518 | 45 | 234 | 7.0 | 10.4 | 0.00 | 0.00 | 0.00 | 40 | 1019.2 |
| 20260502114521 | 46 | 207 | 8.7 | 13.9 | 0.00 | 0.00 | 0.00 | 35 | 1019.2 |
| 20260502113014 | 46 | 238 | 7.8 | 13.9 | 0.00 | 0.00 | 0.00 | 35 | 1019.3 |
| 20260502111520 | 46 | 223 | 7.8 | 11.3 | 0.00 | 0.00 | 0.00 | 36 | 1019.4 |
| 20260502110025 | 46 | 240 | 7.0 | 12.2 | 0.00 | 0.00 | 0.00 | 35 | 1019.4 |
| 20260502104509 | 45 | 247 | 6.1 | 12.2 | 0.00 | 0.00 | 0.00 | 36 | 1019.4 |
| 20260502103014 | 45 | 245 | 7.8 | 13.0 | 0.00 | 0.00 | 0.00 | 36 | 1019.5 |
| 20260502101521 | 45 | 233 | 9.6 | 13.0 | 0.00 | 0.00 | 0.00 | 35 | 1019.5 |
| 20260502091516 | 45 | 229 | 7.0 | 10.4 | 0.00 | 0.00 | 0.00 | 38 | 1019.4 |
| 20260502071508 | 45 | 243 | 11.3 | 15.6 | 0.00 | 0.00 | 0.00 | 40 | 1020.0 |
| 20260502070018 | 45 | 227 | 7.8 | 14.8 | 0.00 | 0.00 | 0.00 | 41 | 1020.1 |
| 20260502064520 | 45 | 252 | 8.7 | 14.8 | 0.00 | 0.00 | 0.00 | 40 | 1020.1 |
| 20260502063026 | 45 | 243 | 7.0 | 11.3 | 0.00 | 0.00 | 0.00 | 41 | 1020.2 |
| 20260502061528 | 46 | 224 | 8.7 | 13.0 | 0.00 | 0.00 | 0.00 | 40 | 1020.2 |
| 20260502060015 | 46 | 251 | 8.7 | 13.0 | 0.00 | 0.00 | 0.00 | 39 | 1020.2 |
| 20260502054520 | 46 | 238 | 7.8 | 13.0 | 0.00 | 0.00 | 0.00 | 39 | 1020.2 |
| 20260502053023 | 46 | 235 | 7.0 | 12.2 | 0.00 | 0.00 | 0.00 | 39 | 1020.2 |
| 20260502051531 | 46 | 240 | 7.8 | 13.0 | 0.00 | 0.00 | 0.00 | 39 | 1020.2 |
| 20260502050028 | 47 | 230 | 9.6 | 13.9 | 0.00 | 0.00 | 0.00 | 39 | 1020.3 |
| 20260502044519 | 46 | 235 | 9.6 | 14.8 | 0.00 | 0.00 | 0.00 | 41 | 1020.3 |
| 20260502043023 | 46 | 238 | 9.6 | 13.0 | 0.00 | 0.00 | 0.00 | 42 | 1020.2 |
| 20260502041526 | 47 | 241 | 10.4 | 13.0 | 0.00 | 0.00 | 0.00 | 41 | 1020.3 |
| 20260502040037 | 47 | 252 | 8.7 | 14.8 | 0.00 | 0.00 | 0.00 | 42 | 1020.3 |
| 20260502034528 | 47 | 257 | 10.4 | 14.8 | 0.00 | 0.00 | 0.00 | 42 | 1020.1 |
| 20260502033019 | 47 | 264 | 7.0 | 13.9 | 0.00 | 0.00 | 0.00 | 42 | 1020.1 |
| 20260502031524 | 48 | 229 | 7.8 | 11.3 | 0.00 | 0.00 | 0.00 | 41 | 1020.1 |
| 20260502030028 | 48 | 234 | 6.1 | 8.7 | 0.00 | 0.00 | 0.00 | 41 | 1020.0 |
| 20260502024531 | 48 | 236 | 5.2 | 8.7 | 0.00 | 0.00 | 0.00 | 42 | 1019.9 |
| 20260502023016 | 48 | 236 | 3.5 | 6.1 | 0.00 | 0.00 | 0.00 | 44 | 1019.8 |
| 20260502021520 | 49 | 228 | 3.5 | 5.2 | 0.00 | 0.00 | 0.00 | 43 | 1019.8 |
| 20260502020024 | 52 | 248 | 4.3 | 6.1 | 0.00 | 0.00 | 0.00 | 39 | 1019.8 |
| 20260502014522 | 59 | 114 | 0.0 | 3.5 | 0.00 | 0.00 | 0.00 | 27 | 1019.6 |
| 20260502013014 | 60 | 103 | 1.7 | 3.5 | 0.00 | 0.00 | 0.00 | 26 | 1019.7 |
| 20260502011518 | 61 | 324 | 0.0 | 1.7 | 0.00 | 0.00 | 0.00 | 26 | 1019.6 |
| 20260502010022 | 61 | 339 | 1.7 | 5.2 | 0.00 | 0.00 | 0.00 | 25 | 1019.8 |
| 20260502004528 | 61 | 5 | 3.5 | 5.2 | 0.00 | 0.00 | 0.00 | 24 | 1019.9 |
| 20260502003012 | 61 | 1 | 1.7 | 4.3 | 0.00 | 0.00 | 0.00 | 25 | 1019.9 |
| 20260502001521 | 61 | 348 | 2.6 | 6.1 | 0.00 | 0.00 | 0.00 | 25 | 1020.0 |
| 20260502000023 | 61 | 342 | 1.7 | 6.1 | 0.00 | 0.00 | 0.00 | 24 | 1020.1 |
| 20260501234525 | 62 | 21 | 2.6 | 7.0 | 0.00 | 0.00 | 0.00 | 24 | 1020.2 |
| 20260501233028 | 61 | 344 | 3.5 | 8.7 | 0.00 | 0.00 | 0.00 | 24 | 1020.2 |
| 20260501231532 | 61 | 69 | 3.5 | 6.1 | 0.00 | 0.00 | 0.00 | 23 | 1020.1 |
| 20260501230029 | 61 | 129 | 2.6 | 7.8 | 0.00 | 0.00 | 0.00 | 24 | 1020.2 |
| 20260501224527 | 61 | 28 | 3.5 | 6.1 | 0.00 | 0.00 | 0.00 | 24 | 1020.3 |
| 20260501223034 | 61 | 85 | 5.2 | 8.7 | 0.00 | 0.00 | 0.00 | 23 | 1020.1 |
| 20260501221528 | 61 | 60 | 3.5 | 8.7 | 0.00 | 0.00 | 0.00 | 26 | 1020.3 |